Погода Никольское

Погода Никольское : погода сейчас, прогноз погоды и архив. Всё, что Вы хотите узнать о погоде Никольское!

Хотите узнать прогноз погоды Никольское? Тогда Вам сюда: Погода Никольское

Поиск расширенной информации на нашем сайте:

Полезная информация: теплообменник воды в бассейне

Другие новости

Новости СМИ2

Главная страница сайта

Новости сайта

03.07.2017

Напоминаем, что на нашем специализированном сайте Метеоцентр.Азия вы можете получить высокодетализированные автоматические прогнозы погоды по пунктам России, СНГ и мира в авиационном формате (включающие направление и скорость ветра, видимость, явления погоды, количество и форму облачности, нижнюю и верхнюю границу облачности).

Рекомендуем: для Вас архив аудиокниг в UA-IX

Погода Никольское - сегодня

Время (UTC), дата Ветер
(°,м/с) 
Видим.   Явления Облачность Т
(°С)
Тd
(°С)
f(%) Тe
(°С)
Pmin
(гПа)
dP
(гПа)
Po
(мм)
O2
(г/м3)
Тmin Tmax R s Состояние
почвы
21 15.10.17 130 (ЮВ) 20000 м    5/5 600 м 
[Cu Sc]
+4.5 -1.1 67 +4  1005.5  -0.5  752  298  +0.3         
00 16.10.17 040 (СВ) 2{11}  20000 м    3/3 600 м 
[Cu hum]
+5.5 +0.5 70 +5  1004.4  -1.1  752  297           
03 16.10.17 040 (СВ) 20000 м    3/3 600 м 
[Cu hum]
+5.4 +0.8 72 +4  1002.7  -1.7  750  296           
06 16.10.17 050 (СВ) 20000 м    6/6 600 м 
[Cu Sc]
+2.2 -0.9 80 +2  1002.2  -0.5  750  300           
09 16.10.17 030 (СВ) 20000 м    6/6 600 м 
[Sc]
+1.6 -1.7 79 +1  1002.4  0.2  750  301    +6.4       
12 16.10.17 360 (С) 20000 м    6/6 600 м 
[Sc]
+1.3 -2.1 78 -1  1002.1  -0.4  750  301           
18 16.10.17 300 (СЗ) 10-14{14}  20000 м    8/8 600 м 
[Sc]
+2 +0 87 -2  1003.5  1.2  751  300           
21 16.10.17 360 (С) 2{14}  20000 м  {ливн. осадки}  9/9 600 м 
[Sc]
+3 -0.5 78 +2  1004.6  1.1  752  300  +0.8    0.1     
00 17.10.17 290 (З) 20000 м  {ливн. осадки}  6/4 600 м верхняя 
[Cu med, cong|Ci fib]
+4.2 -2.5 62 +2  1005.2  0.6  752  299           
03 17.10.17 310 (СЗ) 20000 м    4/3 600 м верхняя 
[Cu med, cong|Ci fib]
+4.3 -0.5 71 +2  1005.7  0.5  753  299           
06 17.10.17 290 (З) 3{10}  20000 м    8/8 600 м 
[Cu Sc]
+3.2 -1.5 71 +2  1007.3  1.6  754  300           
09 17.10.17 030 (СВ) 20000 м    3/3 600 м 
[Sc]
+0.9 -2.5 78 1009  1.7  755  304    +5.1       
12 17.10.17 040 (СВ) 20000 м    1/1 600 м 
[Sc]
+1.4 -2.4 76 +2  1010.3  1.4  756  303           
15 17.10.17 040 (СВ) 20000 м    3/3 600 м 
[Sc]
+0.8 -1.6 84 1011.4  757  304           
18 17.10.17 350 (С) 20000 м    3/3 600 м 
[Sc]
+1.1 -0.7 88 1013  1.6  758  304           
21 17.10.17 140 (ЮВ) 20000 м  {ливн. осадки}  6/4 600 м кучево-дожд., верхняя 
[Cb cap|Ci]
+0.8 -1.3 86 1015.3  2.3  760  305  -0.3    0.1     
00 18.10.17 040 (СВ) 20000 м  {ливн. осадки}  5/4 600 м верхняя 
[Cu med, cong|Ci fib]
+3.2 -0.2 78 +4  1017  1.8  761  303           
06 18.10.17 160 (Ю) 20000 м  {ливн. осадки}  3/3 600 м 
[Cu hum]
+3.1 -1.7 71 +3  1020.1  1.9  763  304           
09 18.10.17 140 (ЮВ) 20000 м    3/3 600 м 
[Cu hum]
+2.5 -2 72 +1  1021.2  764  305    +4.5  0.1     
12 18.10.17 120 (ЮВ) 20000 м    3/3 600 м 
[Cu hum]
+0.9 -7.5 53 -1  1021.4  0.3  764  308           
15 18.10.17 100 (В) 20000 м    4/4 600 м 
[Cu hum]
+2.6 -3.8 63 1020.3  -1.1  764  305           
18 18.10.17 060 (СВ) 20000 м    4/4 600 м 
[Cu hum]
+2 -2 75 1017.6  -2.7  762  305           
21 18.10.17 070 (В) 8-12{12}  20000 м    10/3 600 м средняя 
[Cu hum|As op]
+4 -0.4 73 +1  1015.7  -1.9  760  302  +0.1         
00 19.10.17 060 (СВ) 11-16{17}  20000 м    10/10 600 м 
[Sc]
+4.9 -0.3 69 +1  1012.3  -3.4  758  300           
06 19.10.17 040 (СВ) 10-18{21}  20000 м    10/10 600 м 
[Sc]
+4.5 +1.4 80 +1  1005.2  -2.9  752  298           
Время (UTC), дата Ветер
(°,м/с) 
Видим.   Явления Облачность Т
(°С)
Тd
(°С)
f(%) Тe
(°С)
Pmin
(гПа)
dP
(гПа)
Po
(мм)
O2
(г/м3)
Тmin Tmax R s Состояние
почвы

Для получения пояснительной информации подведите курсор к названию столбца.

ПОГОДА Никольское - архив

Всё, что Вы хотите узнать о погоде Никольское - удобно и подробно!

Выберите нужную дату (начиная с 1 января 2015* года) и нажмите кнопку "Найти".
Будут отображены архивные сводки погоды по пункту Никольское, начиная с указанной даты.


Отображать данные в формате CSV (для использования в таблицах Excel)


Внимание! Наш архив погоды предназначен исключительно для личного некоммерческого использования в познавательных целях. Если Вам необходимы официальные справки о состоянии погоды (для производственных, юридических, коммерческих и т.п. целей), обращайтесь в органы Росгидромета.

*Примечание: данная дата относится к архиву по метеостанциям СССР (Россия, СНГ, Балтия).
Архив по метеостанциям Зарубежной Европы и Азии (кроме Китая) хранится 10 дней, по другим регионам земного шара (Китай, Африка, Америка, Австралия, Океания) - 1 день.

Никольское - район местоположения метеостанции


Название, широта, долгота, высота метеостанции:
Никольское 55.2°ш. 166°д. 18 м над ур. моря [Российская Федерация]

Дополнительная информация

В oтличие oт бoльшинства пoгoдных сайтoв мы публикуем пoдрoбную метеoинфoрмацию в детальнoм прoфессиoнальнoм фoрмате.

Характеристики температуры и влажнoсти вoздуха измеряются на высoте 2 м в тени вдали oт зданий и деревьев.
Скoрoсть ветра измеряется на высoте 10 м (на урoвне рoста челoвека скoрoсть ветра ниже в 1.5-2 раза). Если метеoстанция нахoдится в гoрoде или в лесу, тo скoрoсть ветра занижена на 2-4 м/с пo сравнению с oткрытым местoм. Скoрoсть ветра над акватoриями крупных рек и oзёр, а также на вершинах хoлмoв на 2-5 м/с выше, чем в oбычных услoвиях.
Атмoсфернoе давление в разных тoчках местнoсти мoжет значительнo oтличаться oт давления на метеoстанции, в зависимoсти oт услoвий рельефа (при пoдъёме на 10 м давление пoнижается примернo на 1 мм рт.ст.).